Home > Weather > Cleveland > Past weeks

Flag for USA Past Weather in Cleveland, Ohio, USA — Yesterday and Last 2 Weeks

Now
72 °F

Partly sunny.


Feels Like: 74 °F
Forecast: 74 / 87 °F
Wind: No wind

Location: Cleveland-Hopkins International Airport

Current Time: Jul 28, 2016 at 8:35:13 AM

Latest Report: Jul 28, 2016 at 7:51 AM


Visibility: 10 mi

Pressure: 29.92 "Hg

Humidity: 71%

Dew Point: 62 °F

Location of ClevelandLocation

Past Weather in Cleveland — Graph

°F

Cleveland Temperature Yesterday

Maximum temperature yesterday: 90 °F (at 2:51 PM)
Minimum temperature yesterday: 64 °F (at 4:51 AM)
Average temperature yesterday: 79 °F

High & Low Weather Summary for the Past Weeks

 TemperatureHumidityPressure
High93 °F (Jul 13, 4:51 PM)88% (Jul 23, 5:51 AM)30.29 "Hg (Jul 23, 5:51 AM)
Low60 °F (Jul 20, 3:51 AM)31% (Jul 20, 4:51 PM)29.84 "Hg (Jul 14, 3:51 AM)
Average79 °F59%30.03 "Hg
* Reported Jul 13 6:51 AM — Jul 28 6:51 AM, Cleveland, Weather by CustomWeather, © 2016

Note: Actual official high and low records may vary slightly from our data, if they occured in-between our weather recording intervals... More about our weather records

Advertising

Cleveland Weather History for the Previous 24 Hours

Scroll right to see more
 ConditionsComfort  
Time TempWeatherWind HumidityBarometerVisibility
6:51 AM
Thu, Jul 28
70 °FPassing clouds.3 mph71%29.91 "Hg10 mi
5:51 AM68 °FPassing clouds.No wind76%29.90 "Hg10 mi
4:51 AM71 °FOvercast.No wind66%29.90 "Hg10 mi
3:51 AM69 °FPassing clouds.No wind73%29.91 "Hg10 mi
2:51 AM71 °FPassing clouds.3 mph66%29.92 "Hg10 mi
1:51 AM71 °FPassing clouds.No wind66%29.93 "Hg10 mi
12:51 AM73 °FPassing clouds.3 mph62%29.95 "Hg10 mi
11:51 PM
Wed, Jul 27
74 °FPassing clouds.3 mph60%29.95 "Hg10 mi
10:51 PM79 °FPassing clouds.3 mph47%29.95 "Hg10 mi
9:51 PM81 °FPassing clouds.6 mph44%29.93 "Hg10 mi
8:51 PM83 °FScattered clouds.5 mph40%29.94 "Hg10 mi
7:51 PM85 °FScattered clouds.7 mph37%29.94 "Hg10 mi
6:51 PM86 °FPassing clouds.10 mph36%29.94 "Hg10 mi
5:51 PM87 °FPassing clouds.9 mph36%29.95 "Hg10 mi
4:51 PM89 °FPassing clouds.13 mph34%29.96 "Hg10 mi
3:51 PM89 °FScattered clouds.9 mph32%29.96 "Hg10 mi
2:51 PM90 °FScattered clouds.13 mph33%29.98 "Hg10 mi
1:51 PM89 °FScattered clouds.10 mph34%29.99 "Hg10 mi
12:51 PM89 °FPassing clouds.6 mph34%30.00 "Hg10 mi
11:51 AM88 °FPassing clouds.9 mph34%30.01 "Hg10 mi
10:51 AM87 °FSunny.6 mph35%30.02 "Hg10 mi
9:51 AM83 °FSunny.3 mph37%30.03 "Hg10 mi
8:51 AM78 °FSunny.5 mph50%30.03 "Hg10 mi
Weather by CustomWeather, © 2016

See weather overviewHow to use our weather pages